Location: Beneden-Haastrecht
(52.0012°N, 4.7557°E)
Time: 11:08:04
(UTC+00:00)

Cosmos 2263 Rocket - Pass Details

Date: 24 October 2020
Orbit: 822 x 850 km, 71.0° (Epoch: 24 November)

Event Time Altitude Azimuth Distance (km) Brightness Sun altitude
Rises 19:59:41 0° 329° (NNW) 3,420 6.1 -32.8°
Reaches altitude 10° 20:02:08 10° 329° (NNW) 2,483 5.2 -33.1°
Enters shadow 20:05:52 43° 330° (NNW) 1,182 3.2 -33.6°
